SL-12 DEB, 48349

Orbit data source: Space-Track

SL-12 DEB, 48349 is space debris originally from a launch on Sat, 19 May 1990 UTC launched from the Tyuratam Missile And Space Complex (TTMTR). Debris objects in space refer to the collection of defunct objects orbiting the Earth. Examples of debris include non-operational satellites, rocket bodies, and fragments generated from explosions, collisions, or faulty payload assembly.

Loading next visibility...
Identifier
48349, 1990-045H
Orbit
Active
Country
Flag of CISCIS
Related business
Manufacturer
RKKE
Mission
Spacecraft
Bus & Motor
Unknown
Mass
Unknown
Launch date (UTC)
1990-05-19 (36 years ago)
Launch vehicle
Unknown
Launch site
Tyuratam Missile And Space Complex (TTMTR)
Object type
Payload
Rocket body
Debris
Shape & HBR
Unknown shape, 0.3 m
Radar Cross Section
Medium (>0.1 m² and <1 m²)

Expand to show TLE details & history
Last TLE update: 1 month ago

TLE from 1 month ago
0 SL-12 DEB
1 48349U 90045H   26145.66011569  .00048856  00000-0  22560-1 0  9995
2 48349  65.0895  28.1211 4336482 343.1201   6.0915  6.62235055270792
Epoch: 2026-05-25T15:50Z
TLE epoch observation values (Epoch: 2026-05-25T15:50:33.995Z)
Latitude
0.00001°
Longitude
-92.76526°
Altitude
498.102 km
Speed
9.093 km/s
True Right ascension
01h 52m 29s
True Declination
0° 00' 00"
Sunlit
Object was in daylight at epoch
Visualization orbit readout
Latitude
Unknown
Longitude
Unknown
Altitude
Unknown
Speed
Unknown
Apparent Right ascension
Unknown
Apparent Declination
Unknown
Sunlit
N/A
Visualization observer readout
Local Sidereal Time
21:28:59
Azimuth
Unknown
Elevation
Unknown
Doppler factor
Unknown
Orbital elements
Apogee altitude
10,792.799 km
Perigee altitude
405.111 km
Semi-major axis
11,977.092 km
Eccentricity
0.43365
Inclination
65.0895°
RAAN
28.1211°
Arg. of periapsis
343.1201°
True anomaly
16.96159°
Mean anomaly
6.0915°
Eccentric anomaly
10.70804°
Mean motion
1.65583 °/min
Orbital period
217.41 mins
BSTAR
0.02256
Loading maneuver chart data...
Computing Atmospheric mass density...
Loading historical data...
Loading historical data...
Loading historical data...
Loading historical data...
Loading historical data...
Loading historical data...
Loading historical data...

Documentation

Showing up to 5 results
|